Tracking 27423 objects as of 8-Jun-2023
HD Live streaming from Space Station
objects crossing your sky now

RUBIN 2

Track RUBIN 2 now!
10-day predictions
RUBIN 2 is classified as:


NORAD ID: 27605
Int'l Code: 2002-058A
Perigee: 598.4 km
Apogee: 699.1 km
Inclination: 64.6 °
Period: 97.6 minutes
Semi major axis: 7019 km
RCS: 0.234 m2 (medium)
Launch date: December 20, 2002
Source: Germany (GER)
Launch site: TYURATAM MISSILE AND SPACE COMPLEX (TTMTR)

Uplink (MHz): 435.275
Downlink (MHz): 145.825
Beacon (MHz):
Mode: U/1200 D/9600 MSK
Call sign:
Status: Inactive

Your satellite tracking list
Your tracking list is empty




NASA's NSSDC Master Catalog

Two Line Element Set (TLE):
1 27605U 02058A   23158.82917543  .00000934  00000-0  14979-3 0  9992
2 27605  64.5552 282.1408 0071728 226.5845 132.9274 14.76116202101236
Source of the keplerian elements: AFSPC